Back to catalog

COSMOS 970 DEB

AliveLEO
NORAD 10564·DEBRIS·🇷🇺 Russia

Launched Dec 21, 1977 from Baikonur Cosmodrome

Loading…

Next Passes (next 24 hours)

TLE

FreshSource: Space-Track

Epoch: Sep 14, 2026, 00:56 UTC

1 10564U 77121F   26257.03918098  .00000064  00000-0  14936-3 0  9990
2 10564  65.8626 117.6280 0147546 357.8299 151.6966 13.70622601432962

Track COSMOS 970 DEB in real time with AllMySat

Download on the App Store